Columbus, MS

3:34 AM CST on February 23, 2017 (GMT -0600)
Columbus Air Force Base

Weather History for KCBM - February, 2014

Change the Weather History Date:

Sunday, February 2, 2014

  Actual Average Record
Temperature  
Mean Temperature 55 °F -  
Max Temperature 62 °F 53 °F 75 °F (1997)
Min Temperature 48 °F 35 °F 24 °F (2000)
Degree Days  
Heating Degree Days 10    
Growing Degree Days 5 (Base 50)    
Moisture  
Dew Point 57 °F    
Average Humidity 89    
Maximum Humidity 100    
Minimum Humidity 77    
Precipitation  
Precipitation 0.36 in - - ()
Sea Level Pressure  
Sea Level Pressure 29.99 in    
Wind  
Wind Speed 9 mph (South)    
Max Wind Speed 18 mph    
Max Gust Speed 23 mph    
Visibility 8 miles    
Events Rain    
Averages and records for this station are not official NWS values.
T = Trace of Precipitation, MM = Missing Value Source: NWS Daily Summary

Daily Weather History Graph

Daily Weather History Graph

Search for Another Location

Airport or City:

Trip Planner

Search our weather history database for the weather conditions in past years. The results will help you decide how hot, cold, wet, or windy it might be!

Date:

Astronomy

Feb. 02, 2014 Rise Set
Actual Time 6:49 AM CST 5:26 PM CST
Civil Twilight 6:23 AM CST 5:52 PM CST
Nautical Twilight 5:53 AM CST 6:21 PM CST
Astronomical Twilight 5:24 AM CST 6:51 PM CST
Moon 8:27 AM CST (2/2) 8:56 PM CST (2/2)
Length of Visible Light 11h 28m
Length of Day
10h 36m
Waxing Crescent, 11% of the Moon is Illuminated
Feb 2
Waxing Crescent
Feb 6
First Quarter
Feb 14
Full
Feb 22
Last Quarter
Mar 1
New

Hourly Weather History & Observations

Time (CST) Temp. Dew Point Humidity Pressure Visibility Wind Dir Wind Speed Gust Speed Precip Events Conditions
1:55 AM 59.9 °F 54.0 °F 81% 29.99 in 10.0 mi South 12.7 mph - N/A   Partly Cloudy
2:05 AM 60.8 °F 53.6 °F 77% 29.99 in 10.0 mi South 10.4 mph 19.6 mph N/A   Mostly Cloudy
2:11 AM 60.8 °F 53.6 °F 77% 29.99 in 10.0 mi SSW 8.1 mph - N/A   Overcast
2:36 AM 60.8 °F 55.4 °F 82% 29.99 in 10.0 mi South 15.0 mph 20.7 mph N/A   Overcast
2:55 AM 60.4 °F 55.4 °F 83% 29.99 in 10.0 mi South 15.0 mph - N/A   Scattered Clouds
3:13 AM 60.8 °F 55.4 °F 82% 29.99 in 10.0 mi SSW 13.8 mph - N/A   Mostly Cloudy
3:55 AM 60.1 °F 56.1 °F 87% 29.99 in 10.0 mi South 11.5 mph - N/A   Overcast
4:31 AM 60.8 °F 55.4 °F 82% 29.99 in 10.0 mi SSW 11.5 mph - N/A   Scattered Clouds
4:55 AM 60.1 °F 56.3 °F 87% 29.99 in 10.0 mi South 10.4 mph - N/A   Scattered Clouds
4:56 AM 60.8 °F 55.4 °F 82% 29.99 in 10.0 mi South 8.1 mph - N/A   Mostly Cloudy
5:00 AM 60.8 °F 55.4 °F 82% 29.99 in 10.0 mi South 10.4 mph - N/A   Mostly Cloudy
5:55 AM 60.3 °F 55.9 °F 86% 30.01 in 10.0 mi SSW 8.1 mph - N/A   Overcast
6:55 AM 59.9 °F 55.9 °F 87% 30.03 in 10.0 mi SW 5.8 mph - N/A   Overcast
7:53 AM 60.8 °F 57.2 °F 88% 30.04 in 10.0 mi South 6.9 mph - N/A   Overcast
7:55 AM 60.1 °F 56.7 °F 88% 30.04 in 10.0 mi South 6.9 mph - N/A   Overcast
8:22 AM 60.8 °F 57.2 °F 88% 30.04 in 10.0 mi South 8.1 mph - N/A   Overcast
8:50 AM 62.6 °F 57.2 °F 82% 30.04 in 10.0 mi South 8.1 mph - N/A   Overcast
8:55 AM 62.2 °F 57.0 °F 83% 30.05 in 10.0 mi SSE 9.2 mph - N/A   Overcast
8:56 AM 62.6 °F 57.2 °F 82% 30.05 in 10.0 mi South 9.2 mph - N/A   Overcast
8:57 AM 62.6 °F 57.2 °F 82% 30.05 in 10.0 mi South 8.1 mph - N/A   Overcast
9:11 AM 62.6 °F 57.2 °F 82% 30.05 in 10.0 mi South 5.8 mph - N/A   Overcast
9:41 AM 62.6 °F 57.2 °F 82% 30.04 in 10.0 mi South 5.8 mph - N/A   Overcast
9:54 AM 62.6 °F 57.2 °F 82% 30.04 in 10.0 mi South 6.9 mph - N/A   Overcast
9:55 AM 62.4 °F 57.2 °F 83% 30.04 in 10.0 mi South 6.9 mph - N/A   Overcast
10:17 AM 62.6 °F 57.2 °F 82% 30.03 in 10.0 mi South 6.9 mph - N/A   Overcast
10:25 AM 62.6 °F 59.0 °F 88% 30.04 in 9.0 mi South 6.9 mph - N/A   Overcast
10:55 AM 61.7 °F 59.4 °F 92% 30.02 in 10.0 mi SSE 8.1 mph - N/A   Overcast
11:07 AM 62.6 °F 59.0 °F 88% 30.02 in 10.0 mi SSE 3.5 mph - N/A Rain Light Rain
11:52 AM 62.6 °F 60.8 °F 94% 29.99 in 3.0 mi Calm Calm - N/A Rain Light Rain
11:53 AM 62.6 °F 60.8 °F 94% 29.99 in 2.0 mi Calm Calm - N/A Rain Light Rain
11:55 AM 61.7 °F 61.3 °F 99% 29.99 in 1.8 mi Calm Calm - 0.12 in Rain Light Rain
11:56 AM 60.8 °F 60.8 °F 100% 29.98 in 1.5 mi Calm Calm - N/A Rain Heavy Rain
12:02 PM 60.8 °F 60.8 °F 100% 29.98 in 1.8 mi SE 4.6 mph - N/A Rain Light Rain
12:03 PM 60.8 °F 60.8 °F 100% 29.98 in 2.0 mi SE 5.8 mph - N/A Rain Light Rain
12:08 PM 60.8 °F 60.8 °F 100% 29.94 in 3.0 mi ESE 6.9 mph - N/A Rain Light Rain
12:30 PM 60.8 °F 60.8 °F 100% 29.96 in 7.0 mi Calm Calm - N/A   Overcast
12:39 PM 60.8 °F 60.8 °F 100% 29.96 in 7.0 mi WNW 5.8 mph - N/A   Light Drizzle
12:55 PM 60.6 °F 60.6 °F 100% 29.94 in 7.0 mi North 4.6 mph - 0.12 in   Light Drizzle
1:29 PM 55.4 °F 55.4 °F 100% 29.94 in 7.0 mi NW 18.4 mph 23.0 mph N/A Rain Light Rain
1:42 PM 51.8 °F 51.8 °F 100% 29.93 in 6.0 mi NNW 13.8 mph - N/A Rain Light Rain
1:55 PM 50.2 °F 50.2 °F 100% 29.92 in 7.0 mi North 11.5 mph - 0.10 in Rain Light Rain
2:21 PM 50.0 °F 50.0 °F 100% 29.91 in 7.0 mi NNW 8.1 mph - N/A Rain Light Rain
2:55 PM 48.2 °F 48.2 °F 100% 29.90 in 2.5 mi NW 10.4 mph - 0.12 in Rain Heavy Rain
3:06 PM 48.2 °F 48.2 °F 100% 29.91 in 5.0 mi NNW 5.8 mph - N/A Rain Light Rain